Starlink 31532

operational
NORAD ID: 59349 Int'l Des: 2024-060 Owner: SPXS Country: US Constellation: starlink
LEOCIRCULAR

关于 Starlink 31532

正在加载描述...

实时位置

正在加载3D地球...

即将过境

高度历史

Altitude vs Time

uPlot chart will show altitude changes over time

两行轨道根数

1 59349U 24060B 25259.44029179 .00000410 00000-0 24405-4 0 9995
2 59349 43.0051 163.9286 0001000 347.3518 12.7308 15.27583861 83460
Epoch: Sep 16, 2025 • Age: 11 hours

当前状态

高度 490.6 km
速度 7.62 km/s
星下点 -30.15°S, 166.85°E
发射日期 Mar 31, 2024
运行时间 1.4 years
类型 internet

技术详情

分类 Payload
质量 730.00 kg
干质量 700.00 kg
总质量 730.00 kg
长度 0.30 m
直径 4.10 m
跨度 29.00 m
形状 Box + pan
制造商 SPXS
平台类型 Starlink V2M
阶段状态 In Orbit
所有者/国家 SPXS/US

大型星座

Loading constellations...